Regional Weather Roundup
Issued by NWS

Home | Current Version | Previous Version | Graphics & Text | Print | Product List | Glossary On
Versions: 1 2 3 4 5 6 7 8 9 10 11 12 13 14 15 16 17 18 19 20 21 22 23 24 25 26 27 28 29 30 31 32 33 34 35 36 37 38 39 40 41 42 43 44 45 46 47 48 49 50
000
ASUS43 KFSD 221910
RWRSD

WEATHER ROUNDUP FOR SOUTH DAKOTA
NATIONAL WEATHER SERVICE SIOUX FALLS SD
100 PM CST WED NOV 22 2017

NOTE: "FAIR" INDICATES FEW OR NO CLOUDS BELOW 12,000 FEET WITH NO
SIGNIFICANT WEATHER AND/OR OBSTRUCTIONS TO VISIBILITY.


SDZ001>005-009-010-012>017-222000-
NORTHWEST AND NORTH CENTRAL SOUTH DAKOTA

CITY           SKY/WX    TMP DP  RH WIND       PRES   REMARKS
BUFFALO          N/A     65  38  36 W30G37    29.90S
FAITH            N/A     62  35  36 W21G29    29.92F
MOBRIDGE       CLOUDY    46  25  43 S10       29.87F
$$

SDZ012>016-024>037-041>051-057-063-072>074-222000-
SOUTHWEST AND SOUTH CENTRAL SOUTH DAKOTA

CITY           SKY/WX    TMP DP  RH WIND       PRES   REMARKS
RAPID CTY ARPT SUNNY     72  37  28 NW32G41   30.01F
PIERRE         SUNNY     48  28  46 SW13      29.93F
CUSTER         PTSUNNY   60  33  36 NW15G26   30.12F
ELLSWORTH AFB  MOSUNNY   71  37  29 NW30G38   29.99F
PHILIP         SUNNY     68  38  33 W20G25    29.96F
PINE RIDGE     SUNNY     65  37  35 W13       30.07F
SPEARFISH      FAIR      64  37  36 W16G26    30.05F
WINNER         FAIR      62  35  36 SW13      29.97F
$$

SDZ004>011-016>023-039-040-222000-
NORTHEAST SOUTH DAKOTA

CITY           SKY/WX    TMP DP  RH WIND       PRES   REMARKS
ABERDEEN       CLOUDY    33  17  51 S20G26    29.96F WCI  21
WATERTOWN      CLOUDY    35  16  45 S21G29    29.97F WCI  24
BROOKINGS      CLOUDY    33  14  45 S21       30.05F WCI  21
SISSETON         N/A     34  16  47 S17       29.96F WCI  23
$$

SDZ017-020-022-023-036>040-048>070-222000-
SOUTHEAST SOUTH DAKOTA

CITY           SKY/WX    TMP DP  RH WIND       PRES   REMARKS
SIOUX FALLS    CLOUDY    35  17  47 S18       30.09F WCI  24
HURON          CLOUDY    36  18  48 S13       30.01F
CHAMBERLAIN    SUNNY     50  31  48 S3        29.98F
MITCHELL       CLOUDY    40  19  43 S14       30.04F
YANKTON        CLOUDY    38  17  42 S13G24    30.08F
$$

ABBREVIATIONS USED IN REMARKS
   TC - TEMPERATURE IN CELSIUS
  WCI - WIND CHILL INDEX
   HX - HEAT INDEX
  VSB - VISIBILITY





USA.gov is the U.S. government's official web portal to all federal, state and local government web resources and services.